Location: Home
(42.5358°N, 72.7383°W)
Time: 23:57:24
(UTC-05:00)

Vanguard 3 - Pass Details

Date: 29 November 2021
Orbit: 508 x 3260 km, 33.3° (Epoch: 21 January)

Event Time Altitude Azimuth Distance (km) Brightness Sun altitude
Rises 07:26:21 0° 261° (W) 7,019 11.5 3.4°
Reaches altitude 10° 07:31:34 10° 258° (WSW) 5,754 11.1 4.2°
Maximum altitude 07:47:17 55° 188° (S) 2,364 9.9 6.6°
Drops below altitude 10° 07:56:28 10° 113° (ESE) 3,499 12.3 7.9°
Sets 07:58:53 0° 108° (ESE) 4,184 12.3 8.2°
